Flag for Poland Weather past 2 weeks in Bielsko-Biała, Poland

Now
42 °F

Fog.


Feels Like: 42 °F
Forecast: 34 / 53 °F
Wind: 2 mph from Northwest

Location: Katowice

Current Time: Mar 28, 2015 at 10:23:27 AM

Latest Report: Mar 28, 2015 at 9:00 AM


Visibility: 4 mi

Pressure: 30.10 "Hg

Humidity: 84%

Dew point: 37 °F

Location of Bielsko-BiałaLocation

Historic Weather in Bielsko-Biała — Graph

°F

Bielsko-Biała temperature yesterday

Maximum temperature yesterday: 52 °F (at 1:00 AM)
Minimum temperature yesterday: 42 °F (at 11:00 PM)
Average temperature yesterday: 46 °F

Past Weeks' High & Low Weather Summary

 TemperatureHumidityPressure
High64 °F (Mar 25, 3:00 PM)97% (Mar 14, 6:00 AM)30.63 "Hg (Mar 14, 6:00 AM)
Low22 °F (Mar 23, 3:00 AM)27% (Mar 21, 2:00 PM)29.75 "Hg (Mar 27, 2:00 AM)
Average43 °F69%30.19 "Hg
* Reported Mar 13 9:00 AM — Mar 28 9:00 AM, Bielsko-Biała, Weather by CustomWeather, © 2015

Note: Actual official high and low records may vary slightly from our data, if they occured in-between our weather recording intervals... More about our weather records

Advertising

Bielsko-Biała weather history for previous 24 hours

 ConditionsComfort  
Time TempWeatherWind HumidityBarometerVisibility
9:00 AM
Sat, Mar 28
42 °FFog.2 mph84%30.10 "Hg4 mi
8:00 AM41 °FFog.2 mph84%30.09 "Hg4 mi
7:00 AM40 °FFog.2 mph88%30.10 "Hg3 mi
6:00 AM38 °FFog.2 mph87%30.09 "Hg4 mi
5:00 AM40 °FOvercast.2 mph85%30.08 "Hg6 mi
4:00 AM41 °FPassing clouds.2 mph82%30.07 "Hg6 mi
3:00 AM42 °FOvercast.2 mph81%30.06 "Hg6 mi
2:00 AM43 °FOvercast.2 mph80%30.05 "Hg6 mi
1:00 AM42 °FFog.2 mph91%30.06 "Hg4 mi
12:00 AM42 °FFog.2 mph91%30.06 "Hg4 mi
11:00 PM
Fri, Mar 27
42 °FFog.2 mph88%30.05 "Hg4 mi
9:00 PM44 °FFog.2 mph82%30.03 "Hg4 mi
8:00 PM44 °FFog.2 mph82%30.01 "Hg4 mi
7:00 PM44 °FFog.2 mph83%30.00 "Hg3 mi
6:00 PM44 °FFog.2 mph83%29.98 "Hg3 mi
5:00 PM44 °FFog.2 mph84%29.97 "Hg3 mi
4:00 PM44 °FOvercast.2 mph89%29.94 "Hg3 mi
3:00 PM44 °FLight rain. Low clouds.3 mph91%29.93 "Hg3 mi
2:00 PM44 °FLight rain. Low clouds.3 mph91%29.92 "Hg5 mi
1:00 PM45 °FLight rain. Low clouds.2 mph92%29.91 "Hg5 mi
12:00 PM45 °FRain. Low clouds.2 mph93%29.90 "Hg4 mi
11:00 AM44 °FRain. Low clouds.2 mph94%29.89 "Hg4 mi
10:00 AM45 °FRain. Low clouds.3 mph93%29.86 "Hg2 mi
Weather by CustomWeather, © 2015

See weather overviewHow to use our weather pages